Location: Newark
(33.6333°S, 78.8500°W)
Time: 11:29:55
(UTC+00:00)

Courier 1B - Pass Details

Date: 25 September 2019
Orbit: 962 x 1209 km, 28.3° (Epoch: 14 October)

Event Time Altitude Azimuth Distance (km) Brightness Sun altitude
Rises 20:43:42 0° 301° (WNW) 4,107 11.9 29.8°
Reaches altitude 10° 20:46:43 10° 307° (NW) 3,142 11.6 29.2°
Maximum altitude 20:54:02 43° 16° (NNE) 1,603 9.0 27.8°
Drops below altitude 10° 21:01:09 10° 84° (E) 3,054 9.7 26.4°
Sets 21:04:02 0° 91° (E) 3,983 10.1 25.8°
